TimeCST,TemperatureF,Dew PointF,Humidity,Sea Level PressureIn,VisibilityMPH,Wind Direction,Wind SpeedMPH,Gust SpeedMPH,PrecipitationIn,Events,Conditions,WindDirDegrees,DateUTC
12:53 AM,37.9,37.0,97,30.28,6.0,Calm,Calm,-,N/A,,Clear,0,2012-11-10 06:53:00
1:53 AM,39.0,37.0,93,30.28,6.0,Calm,Calm,-,N/A,,Clear,0,2012-11-10 07:53:00
2:53 AM,37.9,36.0,93,30.29,5.0,Calm,Calm,-,N/A,,Clear,0,2012-11-10 08:53:00
3:53 AM,37.0,36.0,96,30.30,5.0,Calm,Calm,-,N/A,,Clear,0,2012-11-10 09:53:00
4:53 AM,36.0,35.1,97,30.32,5.0,Calm,Calm,-,N/A,,Clear,0,2012-11-10 10:53:00
5:53 AM,36.0,34.0,93,30.34,5.0,East,3.5,-,N/A,,Clear,100,2012-11-10 11:53:00
6:53 AM,37.0,36.0,96,30.37,4.0,Calm,Calm,-,N/A,,Clear,0,2012-11-10 12:53:00
7:53 AM,43.0,39.0,86,30.38,5.0,East,3.5,-,N/A,,Clear,80,2012-11-10 13:53:00
8:53 AM,51.1,42.1,71,30.38,7.0,Calm,Calm,-,N/A,,Clear,0,2012-11-10 14:53:00
9:53 AM,61.0,42.1,50,30.37,9.0,Calm,Calm,-,N/A,,Clear,0,2012-11-10 15:53:00
10:53 AM,66.0,39.9,38,30.35,9.0,West,5.8,-,N/A,,Clear,270,2012-11-10 16:53:00
11:53 AM,68.0,39.9,36,30.31,9.0,Calm,Calm,-,N/A,,Clear,0,2012-11-10 17:53:00
12:53 PM,71.1,39.9,32,30.28,9.0,North,3.5,-,N/A,,Clear,350,2012-11-10 18:53:00
1:53 PM,71.1,39.9,32,30.27,10.0,Calm,Calm,-,N/A,,Clear,0,2012-11-10 19:53:00
2:53 PM,71.1,39.0,31,30.25,10.0,Calm,Calm,-,N/A,,Clear,0,2012-11-10 20:53:00
3:53 PM,69.1,36.0,30,30.26,10.0,SSE,5.8,-,N/A,,Clear,160,2012-11-10 21:53:00
4:53 PM,62.1,37.9,41,30.27,10.0,SE,3.5,-,N/A,,Clear,140,2012-11-10 22:53:00
5:53 PM,51.1,42.1,71,30.29,10.0,Calm,Calm,-,N/A,,Clear,0,2012-11-10 23:53:00
6:53 PM,50.0,42.1,74,30.30,10.0,Calm,Calm,-,N/A,,Clear,0,2012-11-11 00:53:00
7:53 PM,46.0,41.0,83,30.32,9.0,Calm,Calm,-,N/A,,Clear,0,2012-11-11 01:53:00
8:53 PM,44.1,41.0,89,30.33,8.0,Calm,Calm,-,N/A,,Clear,0,2012-11-11 02:53:00
11:53 PM,42.1,39.0,89,30.32,7.0,ENE,3.5,-,N/A,,Clear,70,2012-11-11 05:53:00